This is the latest recevied weather packets stored in our database for station/object SQ9SMC-13. If no packets are shown the sender has not sent any weather packets the latest 10 day(s).
| Time | Temp. | Humidity | Pressure | Rain* | Wind** | Luminosity | Snow |
|---|---|---|---|---|---|---|---|
| 1777827305 | 23.33° C | 31% | 1016.8 hPa | 0 mm | - | 37 W/m² | - |
| 1777824604 | 25° C | 28% | 1016.9 hPa | 0 mm | - | 70 W/m² | - |
| 1777819803 | 25.56° C | 28% | 1017.4 hPa | 0 mm | - | 305 W/m² | - |
| 1777808103 | 25° C | 31% | 1019.4 hPa | 0 mm | - | 645 W/m² | - |
| 1777807204 | 24.44° C | 31% | 1019.3 hPa | 0 mm | - | 652 W/m² | - |
| 1777805704 | 25° C | 31% | 1019.6 hPa | 0 mm | - | 662 W/m² | - |
| 1777804503 | 23.33° C | 33% | 1019.9 hPa | 0 mm | - | 659 W/m² | - |
| 1777804204 | 24.44° C | 32% | 1019.8 hPa | 0 mm | - | 657 W/m² | - |
| 1777801203 | 22.78° C | 36% | 1020.4 hPa | 0 mm | - | 624 W/m² | - |
| 1777800905 | 22.78° C | 36% | 1020.2 hPa | 0 mm | - | 617 W/m² | - |
| 1777800604 | 22.78° C | 36% | 1020.3 hPa | 0 mm | - | 615 W/m² | - |
| 1777800302 | 22.22° C | 36% | 1020.5 hPa | 0 mm | - | 604 W/m² | - |
| 1777800003 | 21.67° C | 37% | 1020.4 hPa | 0 mm | - | 601 W/m² | - |
| 1777799705 | 22.22° C | 37% | 1020.6 hPa | 0 mm | - | 596 W/m² | - |
| 1777799404 | 21.67° C | 36% | 1020.5 hPa | 0 mm | - | 589 W/m² | - |
| 1777798804 | 21.11° C | 37% | 1020.6 hPa | 0 mm | - | 571 W/m² | - |
| 1777797603 | 21.11° C | 39% | 1020.8 hPa | 0 mm | - | 551 W/m² | - |
| 1777797305 | 21.11° C | 39% | 1020.7 hPa | 0 mm | - | 543 W/m² | - |
| 1777797003 | 20.56° C | 38% | 1020.8 hPa | 0 mm | - | 532 W/m² | - |
| 1777796704 | 20.56° C | 38% | 1020.6 hPa | 0 mm | - | 523 W/m² | - |
| 1777796404 | 20.56° C | 39% | 1020.8 hPa | 0 mm | - | 512 W/m² | - |
| 1777796103 | 20.56° C | 39% | 1020.7 hPa | 0 mm | - | 504 W/m² | - |
| 1777795803 | 20.56° C | 39% | 1020.8 hPa | 0 mm | - | 495 W/m² | - |
| 1777795503 | 20.56° C | 39% | 1020.6 hPa | 0 mm | - | 487 W/m² | - |
| 1777795205 | 20° C | 40% | 1020.8 hPa | 0 mm | - | 477 W/m² | - |
* Rain latest hour (hover to see other rain measurements)
** Current wind speed in m/s (hover to see current wind gust speed)